Date,TemperatureHighF,TemperatureAvgF,TemperatureLowF,DewpointHighF,DewpointAvgF,DewpointLowF,HumidityHigh,HumidityAvg,HumidityLow,PressureMaxIn,PressureMinIn,WindSpeedMaxMPH,WindSpeedAvgMPH,GustSpeedMaxMPH,PrecipitationSumIn
2013-7-1,83.0,76.0,69.0,58.0,51.3,43.0,61,43,28,30.22,30.09,15,8,21,0.00
2013-7-2,83.0,73.6,60.0,47.0,42.5,38.0,58,34,20,30.25,30.11,12,7,19,0.00
2013-7-3,85.0,73.8,58.0,42.0,40.5,39.0,54,31,20,30.17,30.00,18,10,25,0.00
2013-7-4,89.0,75.8,61.0,55.0,48.4,40.0,79,41,21,30.09,29.93,22,14,28,0.30
2013-7-5,93.0,80.5,64.0,55.0,49.9,47.0,60,37,20,30.03,29.88,21,14,29,0.00
2013-7-6,94.0,79.7,68.0,55.0,48.8,44.0,54,36,17,30.01,29.89,22,14,31,0.00
2013-7-7,93.0,81.6,69.0,58.0,50.2,47.0,50,35,20,30.09,29.98,18,12,26,0.00
2013-7-8,95.0,79.1,67.0,60.0,52.8,-99.9,60,43,24,30.17,30.06,16,8,25,0.00
2013-7-9,94.0,82.4,69.0,59.0,57.1,54.0,69,44,27,30.19,30.07,18,12,25,0.00
2013-7-19,84.0,73.6,64.0,66.0,63.4,59.0,100,74,42,30.19,30.02,15,9,22,0.00
2013-7-20,87.0,76.5,65.0,65.0,61.4,55.0,95,63,36,30.10,29.95,15,9,20,0.00
2013-7-21,90.0,78.2,65.0,64.0,61.4,57.0,91,59,34,30.04,29.93,19,11,23,0.00
2013-7-22,90.0,79.1,68.0,67.0,64.2,61.0,90,63,38,30.04,29.93,15,10,20,0.00
2013-7-23,94.0,81.6,70.0,67.0,64.4,59.0,87,59,31,30.04,29.93,15,9,20,0.00
2013-7-24,94.0,82.9,72.0,68.0,64.6,61.0,80,57,35,30.10,29.99,19,8,25,0.00
2013-7-25,90.0,79.2,72.0,67.0,63.7,58.0,78,60,37,30.16,30.06,17,8,21,0.00
2013-7-26,88.0,78.6,71.0,68.0,62.1,51.0,87,60,28,30.21,30.07,19,12,26,0.00
2013-7-27,87.0,74.9,63.0,63.0,55.1,43.0,88,56,23,30.22,30.02,15,6,19,0.00
2013-7-28,90.0,77.3,62.0,61.0,55.6,49.0,72,49,31,30.07,29.92,17,11,22,0.00
2013-7-29,94.0,80.3,70.0,67.0,63.3,58.0,87,60,31,30.03,29.96,21,12,30,0.00
2013-7-30,93.0,82.5,68.0,67.0,63.7,62.0,85,55,36,30.14,30.02,16,10,22,0.00
2013-7-31,95.0,83.4,70.0,68.0,64.8,60.0,85,57,32,30.22,30.10,13,8,18,0.00